Location: Chiroubles
(46.1812°N, 4.6660°E)
Time: 03:59:51
(UTC+00:00)

Tiros 1 - Visible Passes

Search period start: 19 May 2021 00:00
Search period end: 29 May 2021 00:00
Orbit: 630 x 664 km, 48.4° (Epoch: 18 May)

Date Brightness Start Highest point End Pass type
(mag) Time Alt. Az. Time Alt. Az. Time Alt. Az.
19 May 7.4 00:13:08 17° W 00:16:45 70° N 00:21:33 10° ENE visible
19 May 7.3 01:54:25 10° WNW 01:59:14 79° NNE 02:04:00 10° E visible
19 May 7.8 21:14:15 10° SSW 21:18:31 32° SE 21:22:48 10° E visible
19 May 7.1 22:55:36 10° WSW 23:00:26 90° NNW 23:05:16 10° ENE visible
20 May 7.5 00:38:04 10° W 00:42:52 67° N 00:47:38 10° E visible
20 May 7.1 02:20:26 10° WNW 02:25:14 75° SSW 02:29:58 10° ESE visible
20 May 8.7 19:59:56 10° S 20:02:47 16° SE 20:05:37 10° E visible
20 May 7.2 21:39:33 10° SW 21:44:16 57° SSE 21:49:00 10° ENE visible
20 May 7.4 23:21:40 10° W 23:26:30 71° N 23:31:18 10° ENE visible
21 May 7.3 01:04:09 10° WNW 01:08:59 77° NNE 01:13:45 10° E visible
21 May 7.4 02:46:31 10° WNW 02:51:05 45° SSW 02:55:36 10° SE visible
21 May 7.9 20:24:08 10° SSW 20:28:19 30° SE 20:32:31 10° E visible
21 May 7.1 22:05:21 10° WSW 22:10:12 87° SSE 22:15:01 10° ENE visible
21 May 7.5 23:47:48 10° W 23:52:37 67° N 23:57:24 10° E visible
22 May 7.0 01:30:10 10° WNW 01:34:59 79° SSW 01:39:45 10° ESE visible
22 May 8.2 03:12:52 10° W 03:16:44 25° SW 03:20:35 10° SSE visible
22 May 7.3 20:49:22 10° SW 20:54:02 54° SSE 20:58:44 10° ENE visible
22 May 7.4 22:31:25 10° W 22:36:14 72° N 22:41:03 10° ENE visible
23 May 7.3 00:13:53 10° WNW 00:18:43 75° N 00:23:31 10° E visible
23 May 7.3 01:56:14 10° WNW 02:00:51 48° SSW 02:05:26 10° SE visible
23 May 7.1 21:15:07 10° WSW 21:19:56 84° SSE 21:24:47 10° ENE visible
23 May 7.5 22:57:32 10° W 23:02:21 66° N 23:07:08 10° E visible
24 May 7.0 00:39:55 10° WNW 00:44:45 82° SSW 00:49:32 10° ESE visible
24 May 8.0 02:22:32 10° W 02:26:33 27° SW 02:30:30 10° SSE visible
24 May 7.4 19:59:10 10° SW 20:03:48 51° SSE 20:08:28 10° ENE visible
24 May 7.4 21:41:08 10° W 21:45:58 74° N 21:50:47 10° ENE visible
24 May 7.3 23:23:38 10° WNW 23:28:28 73° N 23:33:16 10° E visible
25 May 7.2 01:05:58 10° WNW 01:10:38 51° SSW 01:15:15 10° SE visible
25 May 8.8 02:49:44 10° WSW 02:52:02 13° SW 02:54:19 10° SSW visible
25 May 7.1 20:24:52 10° WSW 20:29:42 81° SSE 20:34:31 10° ENE visible
25 May 7.5 22:07:16 10° W 22:12:05 66° N 22:16:53 10° E visible
25 May 7.0 23:49:39 10° WNW 23:54:30 85° SSW 23:56:36 34° ESE visible
26 May 8.7 01:32:13 10° W 01:34:07 20° W 01:34:07 20° W visible
26 May 7.4 20:50:53 10° W 20:55:43 76° N 21:00:32 10° ENE visible
26 May 7.4 22:33:22 10° WNW 22:38:12 72° N 22:42:14 15° E visible
27 May 7.4 00:15:42 10° WNW 00:19:48 51° WSW 00:19:48 51° WSW visible
27 May 7.5 21:17:00 10° W 21:21:49 67° N 21:26:37 10° E visible
27 May 7.1 22:59:24 10° WNW 23:04:15 88° SSW 23:05:59 40° ESE visible
28 May 8.9 00:41:55 10° W 00:43:35 19° W 00:43:35 19° W visible
28 May 7.4 20:00:38 10° W 20:05:27 77° NNW 20:10:18 10° ENE visible
28 May 7.4 21:43:07 10° WNW 21:47:56 71° N 21:52:24 12° E visible
28 May 7.2 23:25:26 10° WNW 23:30:00 57° SW 23:30:00 57° SW visible
